Location: Rowland
(34.5359°N, 79.2929°W)
Time: 12:51:17
(UTC+00:00)

Courier 1B - Visible Passes

Search period start: 05 October 2022 00:00
Search period end: 15 October 2022 00:00
Orbit: 962 x 1209 km, 28.3° (Epoch: 05 October)

Date Brightness Start Highest point End Pass type
(mag) Time Alt. Az. Time Alt. Az. Time Alt. Az.
05 Oct 9.8 01:07:28 10° SW 01:09:51 12° SSW 01:12:14 10° S visible
06 Oct 9.7 00:12:08 10° WSW 00:16:19 17° SSW 00:20:23 10° S visible
06 Oct 9.6 23:17:30 10° WSW 23:22:45 23° SSW 23:27:47 10° SSE visible
08 Oct 9.9 23:25:19 10° WSW 23:28:42 14° SSW 23:32:01 10° S visible
